ANA284 RJAA-RKSI

Flight info

Callsign ANA284
Flight time N/A
Altitude 36000
Route ENPAR Y16 SAPRA Y685 GUKDO GUKDO2E
Aircraft B738/M-SDE2E3FGHIRWXY/LB1

Departure

Time 2026-05-04 14:02
Airport Narita International Airport (RJAA)

Arrival

Time N/A
Airport Incheon International Airport (RKSI)
Time Latitude Longitude Altitude Speed Heading
2026-05-04 13:32 35.76388 140.38992 143 ft 0 kts 294°
2026-05-04 13:51 35.76388 140.38993 143 ft 1 kts 294°
2026-05-04 13:51 35.76382 140.39011 143 ft 2 kts 294°
2026-05-04 13:51 35.76375 140.39029 143 ft 2 kts 293°
2026-05-04 13:52 35.76363 140.39067 143 ft 2 kts 290°
2026-05-04 13:52 35.76357 140.39086 143 ft 2 kts 285°
2026-05-04 13:52 35.76354 140.39106 143 ft 2 kts 258°
2026-05-04 13:53 35.76362 140.39120 143 ft 1 kts 205°
2026-05-04 13:53 35.76363 140.39121 143 ft 0 kts 204°
2026-05-04 13:55 35.76349 140.39112 143 ft 7 kts 207°
2026-05-04 13:55 35.76189 140.39024 143 ft 14 kts 205°
2026-05-04 13:55 35.76099 140.38975 143 ft 15 kts 204°
2026-05-04 13:56 35.75999 140.38921 143 ft 17 kts 205°
2026-05-04 13:56 35.75886 140.38856 143 ft 19 kts 203°
2026-05-04 13:56 35.75645 140.38921 143 ft 19 kts 149°
2026-05-04 13:57 35.75534 140.38997 143 ft 18 kts 157°
2026-05-04 13:57 35.75421 140.38964 143 ft 17 kts 204°
2026-05-04 13:58 35.75205 140.38844 144 ft 0 kts 203°
2026-05-04 13:58 35.75191 140.38837 144 ft 7 kts 203°
2026-05-04 13:59 35.75118 140.38800 144 ft 16 kts 196°
2026-05-04 13:59 35.74988 140.38855 144 ft 24 kts 149°
2026-05-04 13:59 35.74697 140.39066 143 ft 18 kts 150°
2026-05-04 14:00 35.74585 140.39102 143 ft 14 kts 202°
2026-05-04 14:00 35.74548 140.39058 143 ft 9 kts 242°
2026-05-04 14:00 35.74557 140.38952 143 ft 16 kts 295°
2026-05-04 14:01 35.74613 140.38870 144 ft 0 kts 329°
2026-05-04 14:01 35.74676 140.38825 144 ft 38 kts 329°
2026-05-04 14:02 35.75129 140.38498 143 ft 111 kts 329°
2026-05-04 14:02 35.75973 140.37890 156 ft 168 kts 330°
2026-05-04 14:02 35.77030 140.37148 856 ft 163 kts 329°
2026-05-04 14:02 35.77899 140.36538 2303 ft 132 kts 328°
2026-05-04 14:03 35.78693 140.35967 3028 ft 142 kts 326°
2026-05-04 14:03 35.79641 140.35277 3318 ft 173 kts 327°
2026-05-04 14:03 35.80750 140.34471 3518 ft 197 kts 327°
2026-05-04 14:03 35.81972 140.33585 3972 ft 209 kts 326°
2026-05-04 14:04 35.84686 140.31613 5009 ft 238 kts 326°
2026-05-04 14:04 35.86143 140.30554 5744 ft 247 kts 326°
2026-05-04 14:04 35.87643 140.29463 6488 ft 254 kts 325°
2026-05-04 14:05 35.90757 140.27195 7987 ft 266 kts 326°
2026-05-04 14:05 35.92563 140.26477 8670 ft 285 kts 351°
2026-05-04 14:05 35.94569 140.26828 9397 ft 302 kts 17°
2026-05-04 14:06 35.96374 140.28250 10054 ft 317 kts 43°
2026-05-04 14:06 35.97659 140.30533 10436 ft 338 kts 66°
2026-05-04 14:06 35.98213 140.33445 10596 ft 361 kts 90°
2026-05-04 14:06 35.97896 140.36585 10771 ft 378 kts 108°
2026-05-04 14:07 35.97133 140.39783 10938 ft 398 kts 111°
2026-05-04 14:07 35.95961 140.42930 11058 ft 410 kts 129°
2026-05-04 14:07 35.94005 140.45480 11366 ft 410 kts 149°
2026-05-04 14:07 35.91502 140.47083 11876 ft 401 kts 169°
2026-05-04 14:08 35.88832 140.47570 12459 ft 388 kts 189°
2026-05-04 14:08 35.86216 140.46933 13101 ft 374 kts 208°
2026-05-04 14:08 35.83975 140.45469 13716 ft 369 kts 214°
2026-05-04 14:08 35.81657 140.44061 14240 ft 373 kts 211°
2026-05-04 14:09 35.77651 140.40241 15280 ft 359 kts 239°
2026-05-04 14:09 35.76574 140.37529 15821 ft 358 kts 252°
2026-05-04 14:10 35.76043 140.31423 16787 ft 369 kts 275°
2026-05-04 14:10 35.76623 140.28317 17259 ft 374 kts 279°
2026-05-04 14:10 35.77332 140.25210 17695 ft 378 kts 281°
2026-05-04 14:10 35.78069 140.22099 18133 ft 380 kts 280°
2026-05-04 14:11 35.78734 140.19275 18491 ft 381 kts 280°
2026-05-04 14:11 35.80183 140.12981 19300 ft 382 kts 279°
2026-05-04 14:11 35.80893 140.09828 19690 ft 383 kts 278°
2026-05-04 14:12 35.81601 140.06661 20067 ft 383 kts 278°
2026-05-04 14:12 35.82306 140.03494 20422 ft 385 kts 278°
2026-05-04 14:12 35.83722 139.97112 21086 ft 387 kts 278°
2026-05-04 14:13 35.84435 139.93897 21417 ft 388 kts 277°
2026-05-04 14:13 35.85137 139.90729 21717 ft 389 kts 277°
2026-05-04 14:13 35.85850 139.87505 22020 ft 391 kts 277°
2026-05-04 14:13 35.86566 139.84265 22315 ft 392 kts 277°
2026-05-04 14:14 35.87276 139.81019 22596 ft 393 kts 277°
2026-05-04 14:14 35.88672 139.74491 23141 ft 395 kts 277°
2026-05-04 14:14 35.89369 139.71212 23387 ft 396 kts 277°
2026-05-04 14:15 35.90774 139.64624 23789 ft 398 kts 277°
2026-05-04 14:15 35.92067 139.57983 24143 ft 396 kts 272°
2026-05-04 14:16 35.92864 139.51315 24525 ft 397 kts 271°
2026-05-04 14:16 35.92864 139.51308 24525 ft 397 kts 271°